Regional Weather Roundup
Issued by NWS

Home | Current Version | Previous Version | Graphics & Text | Print | Product List | Glossary Off
Versions: 1 2 3 4 5 6 7 8 9 10 11 12 13 14 15 16 17 18 19 20 21 22 23 24 25 26 27 28 29 30 31 32 33 34 35 36 37 38 39 40 41 42 43 44 45 46 47 48 49 50

000
ASUS43 KDMX 091407
RWRIA

WEATHER ROUNDUP FOR IOWA
NATIONAL WEATHER SERVICE DES MOINES IA
900 AM CDT WED JUL 09 2014

NOTE: "FAIR" INDICATES FEW OR NO CLOUDS BELOW 12,000 FEET WITH NO
SIGNIFICANT WEATHER AND/OR OBSTRUCTIONS TO VISIBILITY.

* - THESE STATIONS ARE NOT NWS STATIONS...THUS NOT UNDER NWS
QUALITY CONTROL.  THEY ALSO DO NOT REPORT WEATHER SUCH
AS PRECIPITATION OR FOG.

IAZ001>003-012>014-020>022-031>034-043>046-091500-
   NORTHWEST IOWA

CITY           SKY/WX    TMP DP  RH WIND       PRES   REMARKS
$$

IAZ055>058-069>071-079>083-090>094-091500-
   SOUTHWEST IOWA

CITY           SKY/WX    TMP DP  RH WIND       PRES   REMARKS
$$

IAZ047>049-059>061-072>074-084-091500-
   CENTRAL IOWA

CITY           SKY/WX    TMP DP  RH WIND       PRES   REMARKS
$$

IAZ004>006-015-016-023>025-035-036-091500-
   NORTH CENTRAL IOWA

CITY           SKY/WX    TMP DP  RH WIND       PRES   REMARKS
$$

IAZ007>011-017>019-026>030-037>042-050>054-066-091500-
   NORTHEAST IOWA

CITY           SKY/WX    TMP DP  RH WIND       PRES   REMARKS
$$

IAZ064-065-067-068-078-091500-
   EAST CENTRAL IOWA

CITY           SKY/WX    TMP DP  RH WIND       PRES   REMARKS
$$

IAZ062-063-075>077-085>089-095>099-091500-
   SOUTHEAST IOWA

CITY           SKY/WX    TMP DP  RH WIND       PRES   REMARKS
$$

ABBREVIATIONS USED IN REMARKS
   TC - TEMPERATURES IN CELSIUS
  WCI - WIND CHILL INDEX
   HX - HEAT INDEX
  VSB - VISIBILITY
$$



USA.gov is the U.S. government's official web portal to all federal, state and local government web resources and services.